Location: Newark
(39.2833°N, 16.3333°E)
Time: 18:10:16
(UTC+00:00)

Envisat - Pass Details

Date: 30 October 2019
Orbit: 764 x 766 km, 98.1° (Epoch: 21 November)

Event Time Altitude Azimuth Distance (km) Brightness Sun altitude
Rises 16:16:46 0° 144° (SE) 3,220 6.0 -4.6°
Reaches altitude 10° 16:19:12 10° 136° (SE) 2,297 5.2 -5.1°
Maximum altitude 16:23:49 37° 70° (ENE) 1,186 3.5 -6.0°
Drops below altitude 10° 16:28:27 10° 4° (N) 2,310 5.3 -6.8°
Sets 16:30:54 0° 357° (N) 3,240 6.2 -7.3°
